Location: Béaulencourt
(50.0796°N, 2.8795°E)
Time: 23:07:56
(UTC+00:00)

Cosmos 1633 Rocket - Pass Details

Date: 20 January 2026
Orbit: 600 x 616 km, 82.5° (Epoch: 17 February)

Event Time Altitude Azimuth Distance (km) Brightness Sun altitude
Rises 05:12:06 0° 167° (SSE) 2,854 6.7 -22.8°
Reaches altitude 10° 05:14:25 10° 160° (SSE) 1,952 5.9 -22.4°
Maximum altitude 05:18:25 38° 92° (E) 924 4.5 -21.8°
Drops below altitude 10° 05:22:26 10° 24° (NNE) 1,960 5.8 -21.1°
Sets 05:24:45 0° 17° (NNE) 2,866 6.6 -20.8°
